Location: Glencliff
(36.1226°N, 86.7183°W)
Time: 03:08:16
(UTC+00:00)

Cosmos 2112 Rocket - Pass Details

Date: 25 August 2019
Orbit: 757 x 787 km, 74.0° (Epoch: 18 September)

Event Time Altitude Azimuth Distance (km) Brightness Sun altitude
Rises 02:20:23 0° 339° (NNW) 3,237 8.1 -22.0°
Reaches altitude 10° 02:22:47 10° 336° (NNW) 2,303 7.3 -22.4°
Maximum altitude 02:27:56 65° 256° (WSW) 834 4.2 -23.3°
Enters shadow 02:29:47 39° 189° (S) 1,133 4.6 -23.6°
